YAOGAN-30 H

导读

YAOGAN-30 H(遥感三十号H星)是中国于北京时间2017年12月25日08时发射的遥感卫星,隶属于遥感三十号系列。作为组网卫星之一,它与同批次发射的G、J星共同构成多星观测系统,主要用于开展空间环境探测与科学实验研究,服务于国土资源普查、防灾减灾等领域,进一步完善中国遥感卫星星座布局,提升空间信息获取能力。

Basic Information
目录编号:
43082
目录名称:
YAOGAN-30 H
国际标识:
2017-085B
轨道中心:
EARTH
卫星名称:
YAOGAN-30 H
卫星全名:
--
卫星状态:
在轨 (已飞行3186 天)
发射日期:
2017-12-25 UTC
国别 :
中国 (CN)
星等 :
--
This satellite is enrolled in the Space Conjunction Data Service (SCDS) and the current flight risk assessment level is: No High Risk
Orbit Information
数据来源 国际轨道数据 AOE轨道数据
星历时间 2026-09-15T22:08:01+0800
7小时前
查看轨道信息
2026-09-16T00:00:00+0800
6小时前
查看轨道信息
半长轴 6935.758km 6935.754km
偏心率 0.0004389 0.0004368
轨道倾角 34.996° 34.996°
近地点辐角 50.543° 52.110°
升交点赤经 318.993° 318.520°
平近点角 309.567° 9.449°
近地点 554.576km 554.587km
远地点 560.666km 560.647km
周期 95.808分钟 95.808分钟
每日圈数 15.030103 15.030116
Detailed Information
使用方式:
暂无
2D Orbit Map
3D Orbit Map
Orbit Altitude Analysis Chart
Orbit Inclination Analysis Chart
Orbit Comprehensive Analysis Chart
View Comprehensive Chart
Conjunction Data List
Event ID Objects TCA Miss Dist (km) Collision Risk Probability Collision Risk Index (CRI) Action
CDM_260909-063104-308206-506725
2026-09-09T
06:31:16+0000
1.958 km
极远距离
2.134419E-6 低风险 0.42
Miss Distance Evolution Trend with All Objects Subscribe to Flight Safety Assessment
Collision Probability Evolution Trend with All Objects Subscribe to Flight Safety Assessment